GW1010 Weather Reports


Display with metric or nautical units.
time (UTC)temp
F
wind
direction
speed
MPH
gust
MPH
rain 1hr
in
rain 24hr
in
rain mn
in
humidity
%
barometer
mb
20260505235026 68 293 1.0 6.0 0.00 0.00 0.00 58 1015.0
20260505234551 68 145 1.0 6.0 0.00 0.00 0.00 57 1015.1
20260505234026 68 0 2.0 6.0 0.00 0.00 0.00 56 1015.1
20260505233528 68 169 1.0 6.0 0.00 0.00 0.00 57 1015.2
20260505233042 68 169 1.0 5.0 0.00 0.00 0.00 57 1015.2
20260505232528 68 201 0.0 5.0 0.00 0.00 0.00 54 1015.3
20260505232030 68 143 2.0 5.0 0.00 0.00 0.00 55 1015.3
20260505231557 68 115 1.0 7.0 0.00 0.00 0.00 54 1015.3
20260505231026 69 154 1.0 7.0 0.00 0.00 0.00 54 1015.3
20260505230529 69 193 2.0 6.0 0.00 0.00 0.00 54 1015.2
20260505230055 69 246 0.0 5.0 0.00 0.00 0.00 55 1015.4
20260505225531 69 232 2.0 5.0 0.00 0.00 0.00 54 1015.4
20260505225027 69 172 1.0 4.0 0.00 0.00 0.00 54 1015.4
20260505224552 69 283 1.0 4.0 0.00 0.00 0.00 54 1015.5
20260505224027 69 311 1.0 4.0 0.00 0.00 0.00 54 1015.6
20260505223532 69 198 2.0 4.0 0.00 0.00 0.00 53 1015.6
20260505223039 69 270 2.0 4.0 0.00 0.00 0.00 54 1015.5
20260505222527 70 0 2.0 4.0 0.00 0.00 0.00 53 1015.6
20260505222030 70 0 0.0 4.0 0.00 0.00 0.00 54 1015.7
20260505221542 69 85 1.0 4.0 0.00 0.00 0.00 54 1015.7
20260505221029 69 148 1.0 4.0 0.00 0.00 0.00 53 1015.7
20260505220526 69 0 0.0 4.0 0.00 0.00 0.00 53 1015.8
20260505220044 69 120 0.0 5.0 0.00 0.00 0.00 53 1015.9
20260505215529 70 22 2.0 6.0 0.00 0.00 0.00 53 1015.9
20260505215029 70 248 1.0 6.0 0.00 0.00 0.00 52 1015.9
20260505214541 70 165 1.0 5.0 0.00 0.00 0.00 52 1016.0
20260505214028 70 224 1.0 4.0 0.00 0.00 0.00 53 1016.1
20260505213529 69 0 1.0 5.0 0.00 0.00 0.00 56 1016.1
20260505213048 69 253 1.0 5.0 0.00 0.00 0.00 56 1016.2
20260505212531 68 0 0.0 5.0 0.00 0.00 0.00 57 1016.4
20260505212027 68 0 1.0 5.0 0.00 0.00 0.00 56 1016.4
20260505211547 68 321 0.0 2.0 0.00 0.00 0.00 57 1016.3
20260505211028 68 0 0.0 3.0 0.00 0.00 0.00 56 1016.3
20260505210528 68 358 1.0 4.0 0.00 0.00 0.00 56 1016.3
20260505210041 68 207 1.0 4.0 0.00 0.00 0.00 56 1016.4
20260505205530 68 0 1.0 4.0 0.00 0.00 0.00 55 1016.3
20260505205030 68 0 0.0 3.0 0.00 0.00 0.00 55 1016.3
20260505204543 68 338 1.0 3.0 0.00 0.00 0.00 59 1016.3
20260505204028 67 0 0.0 3.0 0.00 0.00 0.00 57 1016.3
20260505203528 68 311 1.0 4.0 0.00 0.00 0.00 57 1016.3
20260505203045 68 0 0.0 4.0 0.00 0.00 0.00 57 1016.3
20260505202528 68 293 1.0 4.0 0.00 0.00 0.00 55 1016.3
20260505202029 69 0 0.0 4.0 0.00 0.00 0.00 55 1016.3
20260505201538 68 328 0.0 4.0 0.00 0.00 0.00 57 1016.3
20260505201033 67 0 1.0 4.0 0.00 0.00 0.00 60 1016.3
20260505200528 66 218 1.0 4.0 0.00 0.00 0.00 60 1016.4
20260505200045 66 0 1.0 5.0 0.00 0.00 0.00 58 1016.4
20260505195531 67 0 1.0 5.0 0.00 0.00 0.00 59 1016.4
20260505195029 67 211 1.0 5.0 0.00 0.00 0.00 57 1016.3
20260505194542 66 144 1.0 4.0 0.00 0.00 0.00 60 1016.3
20260505194029 66 207 1.0 3.0 0.00 0.00 0.00 59 1016.4
20260505193529 66 245 1.0 5.0 0.00 0.00 0.00 60 1016.4
20260505193042 65 169 1.0 6.0 0.00 0.00 0.00 61 1016.4
20260505192531 65 133 2.0 6.0 0.00 0.00 0.00 61 1016.3
20260505192028 65 0 1.0 3.0 0.00 0.00 0.00 60 1016.3
20260505191550 65 325 0.0 7.0 0.00 0.00 0.00 60 1016.4
20260505191031 65 246 2.0 7.0 0.00 0.00 0.00 61 1016.4
20260505190529 66 236 2.0 4.0 0.00 0.00 0.00 59 1016.3
20260505190036 66 0 0.0 3.0 0.00 0.00 0.00 56 1016.4
20260505185529 66 0 0.0 3.0 0.00 0.00 0.00 58 1016.4
20260505185029 66 0 0.0 1.0 0.00 0.00 0.00 57 1016.4
20260505184543 65 0 0.0 3.0 0.00 0.00 0.00 60 1016.2
20260505184030 64 0 1.0 6.0 0.00 0.00 0.00 59 1016.4
20260505183528 64 357 1.0 6.0 0.00 0.00 0.00 58 1016.4
20260505183043 65 336 1.0 4.0 0.00 0.00 0.00 58 1016.4
20260505182530 65 0 1.0 3.0 0.00 0.00 0.00 58 1016.2
20260505182028 65 0 0.0 4.0 0.00 0.00 0.00 59 1016.3
20260505181544 65 0 0.0 4.0 0.00 0.00 0.00 58 1016.3
20260505181105 64 219 0.0 3.0 0.00 0.00 0.00 60 1016.3
20260505180531 64 0 1.0 3.0 0.00 0.00 0.00 59 1016.2
20260505180058 64 142 0.0 3.0 0.00 0.00 0.00 60 1016.3
20260505175529 64 204 1.0 3.0 0.00 0.00 0.00 61 1016.3
20260505175029 63 130 1.0 3.0 0.00 0.00 0.00 61 1016.2
20260505174553 63 0 0.0 3.0 0.00 0.00 0.00 63 1016.2
20260505174030 62 246 1.0 4.0 0.00 0.00 0.00 61 1016.2
20260505173531 62 153 0.0 4.0 0.00 0.00 0.00 61 1016.2
20260505173046 62 309 1.0 4.0 0.00 0.00 0.00 62 1016.3
20260505172530 62 0 0.0 5.0 0.00 0.00 0.00 62 1016.3
20260505172029 61 0 0.0 5.0 0.00 0.00 0.00 64 1016.3
20260505171548 61 332 1.0 4.0 0.00 0.00 0.00 65 1016.2
20260505171030 61 0 1.0 3.0 0.00 0.00 0.00 64 1016.5
20260505170530 62 285 0.0 3.0 0.00 0.00 0.00 65 1016.4
20260505170040 61 103 1.0 3.0 0.00 0.00 0.00 66 1016.4
20260505165529 60 60 0.0 2.0 0.00 0.00 0.00 69 1016.5
20260505165031 60 324 0.0 2.0 0.00 0.00 0.00 68 1016.5
20260505164546 59 316 1.0 2.0 0.00 0.00 0.00 69 1016.4
20260505164031 58 72 0.0 0.0 0.00 0.00 0.00 72 1016.4
20260505163532 57 0 0.0 0.0 0.00 0.00 0.00 72 1016.4
20260505163043 57 0 0.0 0.0 0.00 0.00 0.00 74 1016.5
20260505162529 56 0 0.0 2.0 0.00 0.00 0.00 74 1016.4
20260505162026 56 0 0.0 2.0 0.00 0.00 0.00 74 1016.4
20260505161545 56 0 0.0 1.0 0.00 0.00 0.00 76 1016.3
20260505161027 56 0 0.0 1.0 0.00 0.00 0.00 76 1016.2
20260505160528 55 0 0.0 2.0 0.00 0.00 0.00 78 1016.4
20260505153043 53 0 0.0 1.0 0.00 0.00 0.00 85 1016.4
20260505152530 52 0 0.0 0.0 0.00 0.00 0.00 86 1016.4
20260505152026 52 0 0.0 0.0 0.00 0.00 0.00 86 1016.2
20260505151546 52 0 0.0 0.0 0.00 0.00 0.00 87 1016.2
20260505151029 51 0 0.0 0.0 0.00 0.00 0.00 87 1016.2
20260505150526 51 0 0.0 0.0 0.00 0.00 0.00 88 1016.2
20260505140527 49 0 0.0 0.0 0.00 0.00 0.00 94 1016.0
20260505125027 47 0 0.0 0.0 0.00 0.00 0.00 93 1015.5
20260505124544 47 0 0.0 0.0 0.00 0.00 0.00 93 1015.4
20260505124027 47 0 0.0 0.0 0.00 0.00 0.00 92 1015.4
20260505123528 47 0 0.0 0.0 0.00 0.00 0.00 92 1015.3
20260505123042 47 0 0.0 0.0 0.00 0.00 0.00 92 1015.3
20260505122527 48 0 0.0 0.0 0.00 0.00 0.00 91 1015.4
20260505122027 48 0 0.0 0.0 0.00 0.00 0.00 91 1015.3
20260505121539 48 0 0.0 0.0 0.00 0.00 0.00 91 1015.2
20260505121029 48 0 0.0 0.0 0.00 0.00 0.00 91 1015.2
20260505120529 48 0 0.0 0.0 0.00 0.00 0.00 91 1015.1
20260505120044 49 0 0.0 0.0 0.00 0.00 0.00 91 1015.2
20260505115530 49 0 0.0 0.0 0.00 0.00 0.00 91 1015.1
20260505115030 49 0 0.0 0.0 0.00 0.00 0.00 91 1015.2
20260505114544 49 0 0.0 0.0 0.00 0.00 0.00 91 1015.1
20260505114030 49 0 0.0 0.0 0.00 0.00 0.00 91 1015.2
20260505113529 49 0 0.0 0.0 0.00 0.00 0.00 91 1015.2
20260505113047 49 0 0.0 0.0 0.00 0.00 0.00 91 1015.2
20260505112529 49 0 0.0 0.0 0.00 0.00 0.00 91 1015.3
20260505112027 49 0 0.0 0.0 0.00 0.00 0.00 91 1015.3
20260505111537 49 0 0.0 0.0 0.00 0.00 0.00 92 1015.3
20260505111027 49 0 0.0 0.0 0.00 0.00 0.00 92 1015.4
20260505110530 49 0 0.0 0.0 0.00 0.00 0.00 92 1015.4
20260505102030 47 0 0.0 0.0 0.00 0.00 0.00 92 1015.3
20260505101556 47 0 0.0 0.0 0.00 0.00 0.00 92 1015.3
20260505101029 47 0 0.0 0.0 0.00 0.00 0.00 91 1015.3
20260505100527 47 0 0.0 0.0 0.00 0.00 0.00 91 1015.2
20260505100100 47 0 0.0 0.0 0.00 0.00 0.00 90 1015.2
20260505095531 48 0 0.0 0.0 0.00 0.00 0.00 89 1015.2
20260505095029 48 0 0.0 0.0 0.00 0.00 0.00 89 1015.3
20260505094542 48 0 0.0 0.0 0.00 0.00 0.00 89 1015.3
20260505094027 49 0 0.0 0.0 0.00 0.00 0.00 88 1015.3
20260505093529 49 0 0.0 0.0 0.00 0.00 0.00 88 1015.4
20260505093042 49 0 0.0 0.0 0.00 0.00 0.00 88 1015.4
20260505092530 50 0 0.0 0.0 0.00 0.00 0.00 88 1015.5
20260505092027 50 0 0.0 0.0 0.00 0.00 0.00 88 1015.5
20260505091543 50 0 0.0 0.0 0.00 0.00 0.00 89 1015.6
20260505091027 50 0 0.0 0.0 0.00 0.00 0.00 89 1015.6
20260505090531 50 0 0.0 0.0 0.00 0.00 0.00 89 1015.7
20260505090043 49 0 0.0 0.0 0.00 0.00 0.00 89 1015.7
20260505085528 49 0 0.0 0.0 0.00 0.00 0.00 89 1015.8
20260505085027 49 0 0.0 0.0 0.00 0.00 0.00 89 1015.9
20260505084541 49 0 0.0 0.0 0.00 0.00 0.00 89 1015.8
20260505084028 49 0 0.0 0.0 0.00 0.00 0.00 89 1015.8
20260505083528 49 0 0.0 0.0 0.00 0.00 0.00 88 1015.8
20260505083042 49 0 0.0 0.0 0.00 0.00 0.00 88 1015.8
20260505082527 49 0 0.0 0.0 0.00 0.00 0.00 88 1015.9
20260505082028 49 0 0.0 0.0 0.00 0.00 0.00 88 1015.9
20260505081536 49 0 0.0 0.0 0.00 0.00 0.00 88 1015.9
20260505081027 49 0 0.0 0.0 0.00 0.00 0.00 87 1015.9
20260505080526 49 0 0.0 0.0 0.00 0.00 0.00 87 1015.9
20260505080053 49 0 0.0 0.0 0.00 0.00 0.00 86 1016.0
20260505075526 50 0 0.0 0.0 0.00 0.00 0.00 86 1016.0
20260505075027 50 0 0.0 0.0 0.00 0.00 0.00 85 1016.0
20260505074541 50 0 0.0 0.0 0.00 0.00 0.00 85 1015.9
20260505074024 51 0 0.0 0.0 0.00 0.00 0.00 84 1015.9
20260505073528 51 0 0.0 1.0 0.00 0.00 0.00 84 1015.9
20260505073041 51 0 0.0 1.0 0.00 0.00 0.00 84 1016.0
20260505072527 51 0 0.0 1.0 0.00 0.00 0.00 84 1015.9
20260505072027 51 0 0.0 1.0 0.00 0.00 0.00 84 1015.9
20260505071549 51 0 0.0 1.0 0.00 0.00 0.00 84 1015.8
20260505071027 51 0 0.0 1.0 0.00 0.00 0.00 84 1015.8
20260505070528 51 214 0.0 0.0 0.00 0.00 0.00 83 1015.8
20260505070037 51 0 0.0 0.0 0.00 0.00 0.00 83 1015.8
20260505065527 51 0 0.0 0.0 0.00 0.00 0.00 83 1015.8
20260505065026 51 0 0.0 0.0 0.00 0.00 0.00 83 1015.8
20260505064545 51 0 0.0 0.0 0.00 0.00 0.00 82 1015.8
20260505064026 51 0 0.0 0.0 0.00 0.00 0.00 82 1015.8
20260505063529 52 0 0.0 0.0 0.00 0.00 0.00 82 1015.7
20260505063047 52 0 0.0 0.0 0.00 0.00 0.00 82 1015.8
20260505062528 52 0 0.0 0.0 0.00 0.00 0.00 82 1015.7
20260505062027 52 0 0.0 1.0 0.00 0.00 0.00 82 1015.6
20260505061541 52 0 0.0 3.0 0.00 0.00 0.00 82 1015.6
20260505061027 52 0 0.0 3.0 0.00 0.00 0.00 81 1015.7
20260505060527 52 191 0.0 2.0 0.00 0.00 0.00 81 1015.6
20260505060049 52 0 0.0 3.0 0.00 0.00 0.00 81 1015.6
20260505055527 52 117 0.0 3.0 0.00 0.00 0.00 81 1015.6
20260505055027 52 181 0.0 2.0 0.00 0.00 0.00 80 1015.7
20260505054548 53 194 0.0 1.0 0.00 0.00 0.00 79 1015.7
20260505054027 53 0 0.0 2.0 0.00 0.00 0.00 79 1015.8
20260505053526 53 0 0.0 2.0 0.00 0.00 0.00 78 1015.8
20260505053048 53 0 0.0 4.0 0.00 0.00 0.00 78 1015.8
20260505052530 53 113 0.0 4.0 0.00 0.00 0.00 77 1015.8
20260505052030 54 141 0.0 5.0 0.00 0.00 0.00 77 1015.8
20260505051542 54 233 1.0 5.0 0.00 0.00 0.00 77 1015.7
20260505051027 54 165 1.0 2.0 0.00 0.00 0.00 77 1015.8
20260505050530 54 113 0.0 2.0 0.00 0.00 0.00 76 1015.7
20260505041542 55 119 1.0 4.0 0.00 0.00 0.00 74 1015.5
20260505041028 55 0 0.0 3.0 0.00 0.00 0.00 73 1015.4
20260505040527 55 0 0.0 3.0 0.00 0.00 0.00 72 1015.3
20260505040044 55 148 0.0 3.0 0.00 0.00 0.00 71 1015.3
20260505035527 55 151 1.0 3.0 0.00 0.00 0.00 71 1015.3
20260505035028 55 0 0.0 4.0 0.00 0.00 0.00 70 1015.2
20260505034546 55 335 1.0 4.0 0.00 0.00 0.00 69 1015.2
20260505034027 55 136 0.0 3.0 0.00 0.00 0.00 68 1015.2
20260505033528 55 0 0.0 1.0 0.00 0.00 0.00 68 1015.2
20260505033043 55 0 0.0 1.0 0.00 0.00 0.00 68 1015.2
20260505032532 55 0 0.0 3.0 0.00 0.00 0.00 67 1015.2
20260505032028 55 0 0.0 3.0 0.00 0.00 0.00 67 1015.2
20260505031547 56 200 0.0 3.0 0.00 0.00 0.00 66 1015.1
20260505031032 56 0 0.0 2.0 0.00 0.00 0.00 66 1015.0
20260505030527 56 0 0.0 3.0 0.00 0.00 0.00 66 1015.0
20260505030044 56 0 1.0 3.0 0.00 0.00 0.00 65 1015.0
20260505025528 56 226 0.0 3.0 0.00 0.00 0.00 65 1015.0
20260505025029 57 0 1.0 3.0 0.00 0.00 0.00 65 1015.0
20260505024535 57 0 0.0 4.0 0.00 0.00 0.00 64 1015.0
20260505024027 57 0 0.0 4.0 0.00 0.00 0.00 63 1015.0
20260505023528 57 0 0.0 5.0 0.00 0.00 0.00 63 1014.9
20260505023037 57 0 0.0 5.0 0.00 0.00 0.00 63 1014.8
20260505022528 58 187 0.0 3.0 0.00 0.00 0.00 62 1014.9
20260505022027 58 0 0.0 3.0 0.00 0.00 0.00 61 1014.8
20260505021544 59 0 0.0 2.0 0.00 0.00 0.00 62 1014.7
20260505021026 59 0 0.0 2.0 0.00 0.00 0.00 62 1014.7
20260505020527 59 0 0.0 3.0 0.00 0.00 0.00 61 1014.8
20260505020041 59 0 0.0 3.0 0.00 0.00 0.00 61 1014.8
20260505015529 60 306 0.0 3.0 0.00 0.00 0.00 59 1014.8
20260505015024 60 27 0.0 3.0 0.00 0.00 0.00 58 1014.8
20260505014550 61 0 0.0 5.0 0.00 0.00 0.00 59 1014.8
20260505014027 61 0 1.0 5.0 0.00 0.00 0.00 58 1014.8
20260505013527 61 0 1.0 7.0 0.00 0.00 0.00 57 1014.8
20260505013040 62 0 1.0 7.0 0.00 0.00 0.00 57 1014.9
20260505012528 62 215 1.0 7.0 0.00 0.00 0.00 56 1014.8
20260505012028 63 0 3.0 7.0 0.00 0.00 0.00 53 1014.8
20260505011547 63 236 1.0 5.0 0.00 0.00 0.00 53 1014.8
20260505011027 64 264 2.0 6.0 0.00 0.00 0.00 54 1014.8
20260505010527 65 323 2.0 7.0 0.00 0.00 0.00 53 1014.7
20260505010103 65 257 2.0 7.0 0.00 0.00 0.00 53 1014.7
20260505005527 65 239 2.0 7.0 0.00 0.00 0.00 54 1014.7
20260505005027 65 203 1.0 7.0 0.00 0.00 0.00 54 1014.7
20260505004544 65 245 1.0 7.0 0.00 0.00 0.00 53 1014.6
20260505004027 65 252 1.0 5.0 0.00 0.00 0.00 53 1014.7
20260505003524 66 264 2.0 5.0 0.00 0.00 0.00 53 1014.7
20260505003043 66 0 1.0 9.0 0.00 0.00 0.00 53 1014.6
20260505002527 66 0 2.0 9.0 0.00 0.00 0.00 52 1014.5
20260505002027 67 240 1.0 5.0 0.00 0.00 0.00 52 1014.5
20260505001539 67 269 1.0 5.0 0.00 0.00 0.00 51 1014.5
20260505001028 67 243 2.0 5.0 0.00 0.00 0.00 51 1014.5
20260505000527 68 219 1.0 5.0 0.00 0.00 0.00 50 1014.5
20260505000043 68 173 2.0 6.0 0.00 0.00 0.00 51 1014.6
20260504235527 68 260 1.0 6.0 0.00 0.00 0.00 48 1014.6